Wind_Speed
31 31 30 29 29 28 28 27 26 24 24 24 23 22 20 20 20 18 17 17 17 17 17 17 17 17 17 18 18 18 17 15 14 14 13 14 13 13 13 13 13 13 12 12 12 11 11 10 10 10 9 9 9 9 9 9 8 9 9 8 8 8 9
32 33 32 30 31 30 29 29 27 25 26 24 23 23 22 21 21 19 18 17 17 17 18 18 18 18 18 19 19 19 18 16 15 14 14 14 13 13 13 13 13 13 12 11 11 11 11 11 11 11 10 10 10 9 9 9 9 8 8 9 9 9 9
33 34 33 32 33 32 31 31 28 26 27 26 24 24 23 22 21 19 18 18 17 17 18 18 18 18 18 19 20 20 19 17 16 15 15 14 14 13 13 13 13 12 11 11 11 11 11 12 11 11 11 10 10 9 9 10 10 9 9 10 9 9 8
30 33 34 34 35 33 32 33 30 28 28 27 24 24 23 23 22 20 18 18 17 18 18 19 19 19 19 19 20 21 20 18 17 16 17 16 16 15 14 13 13 13 12 12 12 11 11 12 11 11 11 10 10 10 10 11 10 10 10 10 9 8 8
24 30 34 36 37 36 35 34 30 28 27 26 24 24 24 24 23 21 19 18 18 18 18 19 20 20 19 19 19 20 20 19 18 18 18 17 17 17 16 14 14 13 12 11 12 11 10 10 10 10 11 10 10 10 10 11 11 10 10 10 9 8 8
21 26 33 38 40 40 38 35 30 28 26 25 24 24 23 24 23 21 20 19 18 19 19 20 20 20 20 19 19 20 21 21 20 19 19 18 17 17 17 16 15 14 13 12 12 11 10 10 10 11 11 10 10 10 10 10 10 10 10 9 9 8 8
22 24 28 35 41 43 41 37 32 29 27 25 24 24 24 23 23 22 21 19 19 20 20 21 21 20 20 20 20 20 21 21 21 21 20 19 18 17 17 16 16 15 13 12 12 12 10 10 11 11 11 10 10 10 10 10 10 10 9 9 9 8 8
21 23 24 29 38 44 43 38 33 30 28 26 24 24 25 24 24 24 22 21 20 21 21 21 21 20 21 21 20 20 20 21 21 22 21 21 20 18 18 17 15 14 13 13 13 12 12 11 12 12 11 10 10 10 9 9 9 9 9 9 8 8 8
19 20 21 25 33 42 43 38 34 31 29 27 25 24 26 27 27 26 25 23 22 22 22 21 21 21 21 20 20 20 20 20 21 21 22 22 21 20 19 18 16 15 14 14 14 14 13 13 13 13 12 11 11 10 9 9 9 9 9 9 9 9 9
17 18 20 23 29 38 41 38 35 32 30 29 28 28 28 28 28 27 26 24 23 23 23 23 23 21 21 21 20 20 20 20 20 20 21 22 21 21 20 19 18 17 16 16 16 15 15 15 15 14 14 12 11 10 10 10 10 10 9 9 9 9 9
16 17 18 20 25 34 40 40 37 34 31 31 32 31 30 29 28 27 27 25 25 25 24 24 25 24 22 22 21 20 20 19 20 20 20 20 21 21 20 20 20 19 18 17 17 16 15 15 15 15 15 14 12 12 12 11 11 10 10 9 10 10 9
16 17 16 16 19 27 35 39 39 37 34 33 33 32 30 29 27 27 27 27 26 25 25 25 26 25 23 23 22 21 21 20 20 20 20 20 20 20 20 20 20 19 19 18 17 16 16 16 16 16 17 16 15 14 14 12 11 10 10 10 10 11 10
16 16 14 13 16 23 31 35 37 36 34 33 33 32 31 29 28 28 29 30 30 29 27 26 25 24 23 23 23 22 21 22 21 20 20 20 20 20 20 20 19 20 20 19 18 18 17 17 17 17 17 17 16 15 15 14 12 11 10 10 11 11 11
16 15 14 13 16 21 27 30 32 33 33 33 33 32 31 30 30 30 31 31 31 30 27 24 23 24 24 24 24 22 22 22 22 21 20 20 20 20 20 20 19 19 21 19 19 19 19 18 17 17 16 16 15 16 16 15 14 13 12 12 11 11 12
17 16 14 12 15 19 22 24 28 31 32 33 34 34 33 33 32 32 31 29 27 25 23 22 23 25 26 25 25 24 23 23 23 23 23 23 23 22 22 21 20 20 20 19 19 20 20 19 18 17 17 16 15 16 17 16 15 14 13 13 12 12 13
16 17 17 15 15 16 18 22 26 31 33 34 36 36 35 35 35 34 33 31 29 27 24 25 27 28 27 26 26 25 25 25 25 26 26 25 26 25 24 24 23 23 22 20 20 20 20 21 21 20 19 17 15 15 17 17 16 16 15 14 13 13 13
16 16 17 18 19 16 15 18 21 26 32 34 36 38 37 35 35 36 35 33 32 30 28 29 30 30 30 30 29 28 28 28 28 28 28 27 27 27 26 25 25 25 23 23 22 21 21 22 22 21 20 18 17 17 18 18 17 17 17 16 14 14 14
14 14 13 17 20 16 14 17 18 21 27 29 32 36 37 35 36 37 37 36 35 33 31 31 33 32 31 32 32 33 33 33 33 32 32 31 31 30 29 28 27 26 26 25 25 24 23 23 22 22 21 20 19 19 20 19 18 19 20 18 16 15 16
9 12 14 16 16 15 17 20 20 19 21 24 28 31 32 32 32 34 37 39 39 36 32 32 33 31 30 30 32 34 36 36 37 37 37 35 33 32 31 31 31 30 29 29 28 27 26 25 25 24 23 22 21 22 22 21 21 22 22 20 18 17 17
7 10 13 14 14 15 17 19 18 18 18 22 26 27 28 29 29 29 32 37 40 40 37 35 35 34 33 33 34 34 34 35 36 38 39 38 37 36 35 34 34 33 32 32 31 30 29 28 28 27 26 26 25 25 26 25 25 24 22 21 20 18 18
9 10 10 10 12 13 13 13 15 16 18 21 23 24 26 28 27 25 27 31 36 40 41 39 38 37 35 35 34 33 32 33 34 35 37 38 38 39 39 39 38 37 35 35 35 34 32 32 31 30 30 30 29 29 28 27 27 26 24 24 24 21 20
11 12 11 11 12 12 11 10 10 12 13 16 19 20 22 22 22 22 24 27 30 34 37 37 35 33 32 31 30 31 31 32 33 33 33 35 36 36 37 38 38 38 37 37 37 37 37 37 36 34 33 33 33 31 29 28 29 30 28 27 27 24 22
12 13 14 14 14 14 13 13 13 12 12 13 15 16 18 19 21 22 23 24 26 29 30 30 30 29 29 27 27 29 30 31 30 29 29 31 31 31 31 32 33 35 35 35 34 34 35 37 38 37 36 36 36 34 32 30 30 31 30 30 29 26 23
16 16 17 16 16 17 18 18 18 17 16 16 16 16 18 19 21 22 22 23 25 26 26 26 26 26 26 25 26 28 28 28 27 26 25 26 26 25 25 25 27 28 29 28 28 29 32 34 37 38 40 41 40 37 34 32 32 32 31 28 27 26 24
18 18 17 16 16 17 18 19 20 19 19 19 18 18 20 21 22 23 24 25 26 25 25 25 24 24 24 24 25 26 26 26 26 25 25 24 23 23 22 21 22 23 22 21 21 23 26 29 32 34 38 42 43 41 40 37 35 34 31 27 26 26 25
18 18 17 17 18 18 18 19 20 20 19 19 19 21 22 23 24 26 26 26 26 25 25 24 23 22 23 23 23 24 23 24 24 24 23 23 23 23 21 20 19 20 19 19 18 19 21 24 27 29 32 36 36 38 41 40 37 34 30 27 28 28 26
17 18 18 17 18 20 21 22 22 21 20 19 19 20 21 22 23 23 23 22 23 23 22 22 21 21 22 22 23 22 22 22 23 22 21 22 22 22 20 19 19 19 18 18 18 17 18 20 22 23 27 30 28 29 33 34 32 30 28 27 28 29 28
15 16 17 17 18 20 21 22 22 22 23 22 21 20 21 22 23 23 21 20 20 21 20 19 19 20 21 22 23 23 23 24 24 23 22 21 21 20 19 19 19 19 18 17 16 16 17 18 19 19 21 23 22 21 23 25 26 27 28 29 29 30 30
10 10 10 12 15 17 19 21 22 23 25 25 25 25 25 25 24 23 22 21 22 22 21 20 20 20 21 22 22 23 23 23 23 23 22 21 20 19 19 19 19 18 17 17 16 16 17 17 16 17 17 15 16 18 19 20 24 27 29 30 31 31 32
9 8 7 8 10 13 17 20 22 23 24 25 25 25 26 27 26 23 22 22 23 23 22 21 20 20 19 19 20 22 21 19 20 21 21 20 19 20 19 19 19 18 17 17 16 14 14 13 12 12 12 11 13 17 18 18 22 24 25 27 29 30 33
11 10 9 9 10 11 13 15 18 18 20 22 23 23 23 24 24 24 23 23 23 23 21 20 19 19 17 17 18 20 20 18 19 21 21 20 19 18 17 16 18 18 18 17 16 14 13 12 11 10 10 9 9 12 16 19 21 20 20 23 24 25 28
11 12 13 13 13 12 13 15 16 16 16 18 19 19 18 18 19 20 20 20 19 19 18 17 17 16 16 15 16 17 18 17 18 18 19 21 21 19 16 16 17 18 18 18 18 17 16 15 14 13 13 12 10 8 12 16 18 18 19 20 19 20 21
11 12 13 14 13 12 13 15 16 16 16 16 16 16 15 15 14 14 14 14 14 14 14 14 15 14 14 14 13 13 14 15 15 15 16 20 21 20 17 17 17 16 16 16 17 18 18 19 18 18 17 17 15 13 12 13 14 16 17 18 18 18 18
10 10 11 12 12 11 11 12 14 16 16 16 16 16 15 14 14 14 13 12 12 12 12 14 15 14 14 14 13 12 13 13 13 13 14 16 18 17 16 15 12 11 13 14 14 14 15 14 14 15 15 15 14 12 10 10 11 13 13 14 15 15 14
9 9 9 11 11 11 11 12 13 14 15 15 15 15 15 15 16 16 15 13 11 10 9 10 10 10 11 13 14 13 14 13 12 13 14 14 14 13 13 12 11 11 12 12 11 12 12 10 10 11 11 10 9 8 8 9 10 10 10 11 12 12 12
9 8 9 10 11 12 13 13 12 12 12 12 12 13 14 15 16 17 17 16 13 9 6 6 5 5 7 11 13 14 14 14 12 13 15 14 13 12 12 12 12 12 12 12 12 12 12 11 12 12 11 10 10 10 11 11 12 12 12 13 14 14 15
10 9 10 11 13 14 15 16 15 13 12 11 12 12 13 14 14 14 15 16 15 12 9 7 6 6 5 7 11 14 14 12 12 13 15 16 16 15 16 16 15 15 15 15 15 15 15 15 15 15 14 13 14 14 15 15 16 16 17 17 18 19 19
13 13 13 13 15 17 18 18 18 17 17 16 16 16 15 15 15 14 14 15 15 14 13 10 8 9 9 8 8 10 11 11 10 10 13 15 16 17 18 19 19 19 19 19 19 19 19 19 19 19 19 18 18 19 20 20 20 21 21 21 22 22 23
Wind_Direction
205 205 203 203 202 201 205 211 212 208 206 208 208 208 211 215 215 210 209 212 212 211 212 211 211 209 206 207 208 206 205 202 198 199 202 204 204 203 205 206 209 213 214 216 217 215 217 218 215 217 222 223 221 223 229 228 226 229 234 233 230 227 222
206 206 206 204 201 201 203 210 214 211 208 209 208 207 209 216 219 213 209 214 214 212 213 212 211 212 210 209 212 211 208 204 200 199 202 205 205 205 208 210 213 216 216 220 224 223 224 223 218 216 220 224 224 224 227 229 231 231 235 237 236 234 232
205 207 209 207 202 200 202 209 213 211 211 211 209 209 210 215 220 216 211 213 215 213 214 214 212 213 213 212 214 213 210 208 205 204 205 207 207 210 213 213 216 220 217 220 226 227 228 227 223 220 220 222 224 226 226 226 230 231 234 238 237 239 241
204 206 209 209 205 201 203 210 211 209 213 214 210 211 213 215 218 217 213 214 216 216 216 215 215 214 214 215 215 215 213 211 209 209 210 210 210 214 218 216 218 222 221 222 225 226 227 228 228 226 225 226 226 227 228 229 231 231 233 237 235 239 247
207 208 208 209 208 204 206 211 209 208 213 213 211 212 214 217 218 216 215 214 215 217 217 215 215 215 214 215 216 216 215 214 213 213 215 216 214 215 220 222 221 223 224 224 226 227 228 231 233 230 226 225 226 229 233 234 235 233 234 235 234 239 248
210 211 212 212 209 209 213 214 209 207 210 210 210 211 214 218 219 216 215 215 216 217 216 215 214 214 214 213 214 215 215 215 214 215 219 220 219 218 222 225 224 225 225 225 228 229 228 231 236 234 228 224 224 228 232 235 235 236 236 235 233 239 249
212 213 218 218 213 212 216 216 212 207 205 207 208 210 214 217 216 216 214 212 215 216 215 214 214 214 214 213 212 214 215 216 216 216 220 223 224 223 225 226 225 227 229 230 234 236 232 231 234 236 234 230 229 228 231 235 235 238 242 241 237 239 245
215 217 220 219 214 214 216 218 217 209 202 205 211 213 216 218 215 215 213 211 214 216 214 214 214 215 215 214 213 214 215 217 217 217 219 223 226 227 230 232 230 232 235 236 237 238 237 234 233 237 238 236 237 234 233 238 240 244 249 250 248 247 246
215 220 222 220 214 213 216 217 216 211 205 209 216 218 217 218 216 215 215 214 216 217 214 212 213 215 215 214 214 215 216 218 218 218 218 222 226 229 233 237 236 235 235 236 238 238 239 239 238 240 243 242 245 245 240 241 242 246 251 253 253 253 251
211 214 218 220 213 210 212 214 213 211 208 210 215 218 217 217 216 216 217 218 220 221 217 213 213 215 215 215 216 217 217 220 221 221 221 222 225 228 230 236 240 239 236 237 239 240 239 240 241 242 242 241 243 246 246 245 245 247 253 257 255 252 251
204 206 210 214 211 207 206 208 209 209 207 207 211 215 216 217 218 218 219 219 222 222 218 214 213 214 216 217 218 219 219 220 223 224 225 225 226 228 229 233 239 242 242 241 242 243 242 243 244 245 243 241 241 244 245 243 244 247 253 260 262 258 256
198 203 205 203 205 205 204 205 207 207 206 207 210 214 218 220 220 220 222 223 223 220 218 217 214 213 216 218 220 223 223 223 225 226 228 229 230 231 232 234 238 242 244 244 245 246 245 246 247 248 248 244 241 244 248 245 244 247 250 256 262 263 263
193 198 198 195 197 200 204 209 211 211 212 212 214 217 220 222 221 221 223 226 223 217 214 214 212 213 218 221 223 227 229 228 226 227 230 233 234 234 236 237 238 242 245 246 247 248 248 248 250 249 247 243 241 243 247 247 247 246 246 249 254 257 260
191 194 192 191 194 197 203 210 214 217 219 220 220 221 222 225 226 225 225 227 225 219 217 218 221 223 224 225 225 227 229 228 228 231 233 234 236 237 239 240 239 242 248 249 248 251 253 252 252 251 246 241 241 244 247 247 248 248 247 247 250 255 257
189 190 190 190 194 198 202 208 213 216 219 221 222 220 220 222 225 227 228 230 231 230 230 234 238 237 232 231 230 230 231 231 232 236 237 237 238 237 237 240 241 243 247 249 249 250 253 255 253 252 252 248 243 244 247 247 248 252 252 248 249 254 256
185 188 192 193 190 190 195 202 210 214 215 220 223 222 220 219 221 225 228 231 233 234 236 240 241 241 240 239 237 237 238 238 238 239 239 239 241 240 239 238 239 241 242 245 248 247 249 253 251 248 251 252 248 246 248 248 249 252 251 248 250 253 256
183 189 192 193 185 177 185 196 205 211 214 219 224 225 224 221 220 223 225 228 230 231 236 240 240 241 242 241 241 241 241 242 243 243 242 240 240 242 244 243 242 243 243 245 248 247 246 247 246 246 247 248 249 250 250 252 254 253 250 247 248 252 256
183 186 183 181 177 175 189 197 199 206 212 217 221 224 225 225 224 224 224 225 227 230 236 239 239 240 240 239 240 242 243 245 246 246 245 243 241 241 241 242 243 244 246 246 247 249 251 252 252 253 251 248 250 252 251 254 256 255 253 250 246 248 254
192 198 192 183 180 184 193 195 195 199 207 214 217 219 223 226 226 224 223 223 224 228 232 234 235 239 241 240 240 242 244 246 247 247 247 246 246 246 244 243 243 243 244 245 244 244 248 251 255 257 256 254 255 255 252 250 250 250 250 248 244 244 251
205 216 208 198 200 202 200 195 193 197 204 212 215 215 217 222 223 221 223 224 224 226 229 232 236 241 243 244 243 242 244 246 247 248 248 248 248 249 248 247 245 244 244 246 247 246 246 248 250 253 255 256 257 256 255 252 250 248 246 245 245 244 246
217 230 226 214 213 215 213 200 190 196 202 205 210 213 214 217 219 218 222 226 227 230 233 236 240 243 244 246 247 247 248 249 249 250 251 251 251 250 249 247 247 246 246 247 250 251 252 251 249 249 251 254 254 254 256 259 258 254 248 247 249 247 244
233 239 235 226 221 222 228 220 204 205 207 202 207 212 214 218 222 222 223 225 227 230 233 235 238 240 241 243 248 251 252 252 253 254 255 254 253 253 252 252 252 252 251 251 252 253 253 253 251 249 249 250 251 251 252 255 259 260 256 253 254 253 251
234 237 235 232 228 223 226 230 226 225 223 219 220 219 218 222 227 230 229 227 229 232 234 236 238 239 240 242 245 249 250 251 253 255 255 254 252 252 253 253 255 255 254 255 255 253 253 254 253 252 250 249 248 248 247 247 251 257 259 258 258 257 256
235 235 234 234 233 230 228 230 230 228 226 226 226 225 224 224 225 229 232 230 232 236 237 239 240 240 240 241 243 244 245 247 250 250 250 250 249 249 249 249 251 253 253 254 255 255 255 256 255 253 251 250 249 247 245 243 242 246 252 256 257 257 258
252 252 249 248 247 243 240 239 239 239 236 230 225 225 227 227 226 228 229 230 232 234 236 239 240 240 239 238 238 240 241 244 247 248 248 248 247 247 246 244 245 248 250 252 254 255 255 255 255 254 254 254 252 247 243 240 239 242 246 249 249 251 256
270 273 269 261 255 253 253 251 247 247 247 243 238 232 228 227 228 229 230 232 234 235 236 238 236 236 238 239 238 239 240 244 246 246 247 248 246 244 243 242 242 244 247 250 252 252 252 253 256 257 258 257 254 250 246 240 238 241 243 244 243 244 250
271 274 271 264 258 256 256 256 254 253 251 246 242 238 232 228 229 230 230 232 234 235 237 238 236 233 234 238 241 240 238 242 244 242 241 242 242 241 240 241 242 243 244 246 247 248 251 254 258 261 261 259 257 255 249 239 234 236 238 239 240 238 240
272 275 277 274 267 257 250 248 251 255 251 241 232 227 226 226 226 226 225 225 228 232 234 237 237 234 232 235 241 241 238 238 239 238 236 236 238 239 238 237 237 237 238 241 247 252 256 259 263 262 258 256 255 253 244 231 228 235 239 239 241 239 236
285 290 290 285 277 268 260 252 247 244 240 235 228 222 222 226 227 226 224 224 226 228 228 228 230 231 230 230 236 241 239 233 234 237 238 236 236 236 233 232 234 234 236 241 249 255 257 259 263 260 252 246 240 233 229 229 232 237 240 241 242 244 243
285 297 303 297 285 277 272 263 252 242 235 231 225 219 220 223 225 226 223 223 227 227 224 222 222 226 229 227 230 236 236 230 230 235 234 230 230 227 220 221 230 235 238 243 246 249 253 254 254 253 249 245 235 220 213 221 231 234 237 241 243 246 248
282 281 283 281 271 264 258 254 250 246 243 236 225 217 217 217 218 223 223 221 222 222 219 217 217 221 226 226 229 233 233 229 230 232 228 222 222 221 214 214 224 231 234 238 238 239 246 251 251 248 239 237 235 215 205 215 228 232 237 243 246 249 251
294 281 274 267 259 250 243 242 244 241 237 235 229 225 224 220 217 219 221 219 218 218 217 216 217 219 220 218 221 226 226 226 227 226 224 222 222 223 222 220 223 226 229 232 234 236 240 242 244 245 242 239 239 224 210 216 225 233 238 243 246 248 251
303 291 280 270 259 250 239 235 238 235 226 220 220 225 234 239 240 239 234 224 219 218 217 216 217 220 219 216 214 214 216 225 230 227 225 227 225 222 222 224 223 222 225 229 232 237 241 241 240 240 242 245 247 244 236 229 230 235 240 244 246 249 251
295 293 285 276 269 260 249 240 236 236 234 229 225 225 228 234 245 257 258 243 232 229 225 219 217 218 220 219 215 209 206 215 227 233 233 232 227 217 212 215 214 209 211 215 219 225 231 237 241 240 239 244 248 247 243 237 234 236 239 241 245 248 250
287 288 282 277 269 258 253 250 244 241 245 248 248 249 249 244 242 247 251 249 250 254 248 233 223 223 232 234 229 223 218 213 217 230 236 235 233 227 218 210 201 201 209 212 213 220 222 218 222 227 226 227 231 228 220 219 223 227 230 233 237 241 246
272 267 261 260 255 247 246 252 255 251 250 255 261 266 271 269 261 253 247 242 240 242 244 250 254 252 251 248 243 239 235 225 221 230 236 234 233 236 237 230 218 215 221 222 221 227 229 224 225 228 225 222 226 228 227 228 230 232 236 241 243 244 246
255 251 247 243 240 240 243 248 255 259 261 267 273 274 274 274 273 269 262 253 245 232 219 227 271 301 301 270 255 251 250 243 235 236 241 241 238 237 239 240 235 230 230 232 232 234 236 236 238 239 237 236 239 243 244 244 244 244 245 247 250 250 251
249 247 245 242 243 246 248 250 253 256 259 265 270 273 272 270 270 269 266 261 259 253 237 229 252 287 302 300 282 270 266 261 254 249 250 251 250 246 244 243 242 241 240 240 240 240 242 244 245 247 246 245 245 248 250 252 253 253 253 253 255 256 257
Height
3175 3178 3180 3183 3185 3187 3188 3189 3191 3192 3194 3195 3197 3199 3200 3200 3201 3202 3204 3205 3207 3208 3209 3211 3212 3214 3215 3216 3218 3220 3221 3223 3224 3225 3226 3227 3229 3230 3231 3233 3233 3234 3236 3237 3237 3238 3239 3240 3241 3242 3243 3243 3244 3244 3245 3245 3246 3246 3247 3247 3248 3248 3249
3173 3176 3178 3181 3183 3186 3187 3188 3189 3191 3192 3194 3196 3198 3199 3200 3200 3201 3203 3205 3206 3207 3209 3210 3212 3213 3214 3216 3217 3219 3220 3222 3223 3225 3226 3227 3228 3230 3231 3232 3233 3234 3235 3236 3237 3238 3239 3240 3241 3242 3242 3243 3243 3244 3245 3245 3246 3246 3247 3247 3248 3248 3249
3171 3174 3177 3179 3181 3184 3186 3186 3188 3189 3190 3192 3194 3196 3198 3199 3199 3200 3202 3204 3205 3207 3208 3209 3211 3212 3214 3215 3216 3218 3220 3221 3223 3224 3226 3227 3228 3229 3230 3231 3232 3233 3235 3236 3236 3237 3238 3239 3240 3241 3241 3242 3243 3244 3244 3245 3245 3246 3246 3247 3247 3248 3248
3169 3172 3175 3177 3180 3182 3183 3184 3186 3188 3189 3191 3193 3195 3197 3198 3198 3199 3201 3203 3204 3206 3207 3209 3210 3211 3213 3214 3216 3217 3219 3221 3222 3224 3225 3226 3227 3228 3229 3231 3232 3232 3234 3235 3236 3237 3238 3239 3239 3240 3240 3241 3242 3243 3243 3244 3245 3246 3246 3246 3247 3247 3248
3167 3170 3172 3175 3178 3179 3180 3182 3184 3186 3188 3190 3192 3194 3195 3196 3197 3199 3200 3201 3203 3205 3207 3208 3209 3211 3212 3213 3215 3217 3218 3220 3222 3223 3224 3225 3227 3228 3229 3230 3231 3232 3233 3234 3236 3237 3237 3238 3239 3240 3240 3241 3241 3242 3243 3243 3244 3245 3245 3246 3246 3247 3247
3166 3168 3169 3172 3175 3177 3178 3181 3183 3185 3187 3189 3191 3193 3194 3195 3196 3198 3199 3200 3202 3204 3206 3207 3208 3210 3211 3213 3214 3215 3217 3219 3220 3222 3223 3224 3226 3227 3228 3229 3231 3232 3232 3233 3234 3236 3237 3237 3238 3239 3240 3240 3241 3241 3242 3243 3243 3244 3244 3245 3245 3246 3246
3165 3166 3167 3169 3172 3174 3176 3179 3182 3184 3186 3188 3189 3191 3192 3194 3195 3197 3198 3199 3201 3203 3205 3206 3207 3209 3210 3212 3213 3214 3215 3217 3219 3221 3222 3224 3225 3226 3227 3228 3230 3231 3232 3233 3234 3235 3236 3237 3237 3238 3239 3239 3240 3240 3241 3242 3243 3243 3244 3244 3245 3245 3245
3163 3165 3165 3167 3169 3172 3174 3177 3181 3183 3185 3186 3188 3190 3191 3192 3194 3195 3197 3198 3200 3201 3203 3205 3206 3207 3209 3211 3212 3213 3214 3216 3218 3219 3221 3222 3224 3225 3226 3227 3228 3230 3231 3232 3233 3234 3235 3236 3236 3237 3238 3238 3239 3240 3240 3241 3242 3242 3243 3243 3244 3244 3245
3161 3163 3163 3164 3166 3169 3172 3176 3179 3182 3183 3185 3187 3189 3189 3191 3192 3194 3196 3197 3199 3201 3202 3204 3205 3206 3208 3209 3211 3212 3213 3215 3216 3218 3220 3221 3223 3224 3225 3226 3227 3229 3230 3231 3231 3233 3234 3235 3235 3236 3237 3237 3238 3239 3240 3241 3241 3241 3242 3243 3243 3244 3244
3159 3160 3161 3161 3163 3166 3170 3174 3178 3180 3182 3183 3185 3186 3187 3189 3191 3192 3194 3197 3198 3199 3201 3203 3204 3205 3207 3208 3210 3211 3212 3214 3215 3217 3218 3220 3221 3223 3224 3225 3226 3227 3229 3229 3230 3231 3233 3234 3234 3235 3236 3237 3238 3239 3239 3240 3240 3241 3241 3242 3242 3243 3244
3158 3159 3159 3159 3161 3163 3166 3170 3174 3177 3179 3180 3182 3183 3185 3187 3189 3191 3193 3195 3197 3199 3200 3201 3203 3204 3205 3207 3208 3210 3211 3212 3214 3215 3217 3218 3220 3221 3223 3224 3225 3225 3227 3228 3229 3230 3232 3233 3234 3235 3235 3236 3237 3238 3238 3239 3239 3240 3241 3241 3242 3242 3243
3157 3157 3158 3159 3161 3163 3165 3168 3170 3173 3176 3178 3180 3183 3185 3187 3189 3191 3192 3194 3196 3198 3199 3200 3202 3203 3204 3205 3207 3208 3210 3211 3212 3214 3215 3217 3218 3220 3221 3222 3223 3224 3225 3226 3227 3229 3230 3231 3232 3234 3234 3235 3235 3236 3237 3238 3238 3239 3240 3240 3241 3241 3242
3156 3156 3157 3159 3160 3162 3164 3167 3169 3172 3175 3178 3180 3182 3184 3186 3188 3190 3191 3193 3194 3196 3198 3200 3201 3202 3203 3204 3205 3207 3208 3210 3211 3212 3214 3215 3217 3218 3219 3220 3221 3222 3223 3224 3225 3227 3228 3230 3231 3232 3233 3233 3234 3235 3236 3237 3237 3237 3238 3239 3240 3240 3241
3157 3157 3157 3158 3159 3161 3163 3165 3168 3172 3174 3177 3178 3180 3183 3185 3186 3188 3189 3190 3191 3192 3194 3196 3198 3200 3201 3203 3204 3205 3207 3208 3210 3211 3212 3214 3215 3216 3217 3218 3220 3221 3221 3222 3223 3224 3226 3227 3228 3230 3231 3232 3232 3233 3234 3235 3236 3236 3237 3237 3238 3239 3239
3157 3157 3157 3158 3159 3160 3161 3163 3166 3169 3172 3175 3176 3177 3179 3182 3184 3186 3187 3187 3187 3187 3189 3192 3195 3197 3199 3201 3202 3204 3205 3206 3207 3209 3210 3212 3213 3214 3215 3217 3218 3219 3219 3220 3221 3222 3223 3224 3226 3227 3228 3230 3231 3232 3232 3233 3234 3235 3236 3236 3236 3237 3237
3158 3157 3156 3157 3158 3159 3161 3162 3164 3166 3169 3172 3174 3175 3176 3179 3182 3184 3185 3186 3186 3187 3188 3191 3194 3195 3197 3198 3200 3202 3203 3204 3205 3207 3208 3210 3211 3212 3213 3215 3215 3216 3217 3218 3219 3220 3221 3222 3223 3225 3225 3227 3229 3230 3230 3231 3232 3233 3234 3234 3235 3235 3235
3158 3156 3155 3155 3156 3158 3159 3160 3162 3164 3166 3169 3172 3174 3176 3179 3181 3183 3184 3185 3186 3187 3188 3190 3192 3193 3194 3195 3197 3198 3200 3201 3202 3204 3205 3207 3209 3210 3211 3213 3214 3215 3216 3217 3217 3217 3218 3219 3219 3221 3222 3224 3226 3227 3228 3229 3230 3231 3232 3232 3233 3233 3234
3156 3155 3154 3154 3155 3157 3158 3159 3159 3161 3163 3167 3170 3172 3175 3178 3180 3181 3181 3183 3184 3185 3186 3187 3189 3190 3191 3192 3193 3195 3196 3197 3199 3200 3202 3204 3206 3207 3209 3211 3212 3213 3214 3215 3216 3216 3217 3217 3217 3218 3219 3220 3222 3224 3225 3226 3227 3229 3230 3231 3231 3231 3232
3153 3154 3153 3152 3153 3156 3156 3157 3158 3160 3162 3166 3168 3169 3172 3174 3175 3177 3177 3179 3180 3182 3183 3184 3186 3187 3188 3189 3190 3191 3192 3194 3195 3196 3198 3201 3203 3205 3207 3208 3209 3210 3211 3211 3213 3214 3216 3217 3217 3218 3218 3217 3219 3222 3222 3222 3223 3224 3226 3228 3229 3229 3230
3150 3151 3151 3151 3152 3153 3153 3156 3160 3162 3164 3165 3166 3167 3170 3171 3171 3172 3173 3175 3177 3178 3179 3180 3181 3183 3184 3185 3186 3187 3189 3190 3192 3192 3194 3198 3201 3202 3204 3206 3206 3207 3208 3208 3209 3211 3213 3214 3214 3216 3216 3216 3217 3219 3218 3218 3220 3222 3223 3224 3226 3227 3228
3147 3148 3149 3150 3150 3151 3151 3154 3159 3162 3164 3165 3166 3167 3169 3169 3168 3168 3169 3171 3174 3175 3176 3176 3177 3179 3180 3182 3183 3185 3187 3188 3189 3190 3191 3194 3196 3197 3199 3200 3200 3202 3204 3205 3206 3207 3208 3209 3210 3212 3213 3214 3214 3215 3215 3217 3219 3220 3220 3221 3223 3224 3225
3147 3147 3148 3149 3149 3150 3151 3152 3156 3159 3161 3163 3164 3165 3166 3166 3166 3166 3167 3169 3171 3171 3172 3172 3174 3175 3177 3180 3182 3183 3184 3185 3186 3187 3189 3190 3191 3192 3194 3195 3195 3197 3199 3200 3202 3203 3204 3205 3206 3208 3209 3210 3210 3212 3213 3214 3216 3217 3218 3219 3219 3221 3222
3146 3146 3147 3148 3148 3149 3150 3151 3153 3155 3157 3159 3160 3162 3163 3164 3165 3165 3165 3166 3167 3167 3168 3169 3171 3172 3174 3177 3179 3179 3180 3181 3182 3185 3186 3187 3188 3189 3190 3191 3193 3194 3194 3195 3196 3197 3198 3200 3201 3203 3204 3205 3207 3208 3209 3211 3212 3214 3215 3216 3217 3218 3219
3145 3146 3146 3147 3147 3147 3147 3148 3150 3151 3153 3155 3157 3159 3160 3161 3162 3163 3163 3164 3165 3165 3166 3168 3168 3169 3171 3173 3175 3175 3176 3178 3180 3182 3183 3183 3184 3186 3187 3188 3189 3190 3190 3190 3190 3192 3193 3195 3196 3198 3199 3200 3202 3204 3205 3207 3209 3210 3212 3213 3215 3215 3216
3145 3147 3148 3148 3148 3147 3147 3146 3148 3149 3151 3153 3154 3156 3157 3158 3159 3160 3160 3161 3162 3163 3164 3165 3167 3168 3169 3171 3172 3173 3174 3175 3177 3179 3180 3181 3181 3182 3184 3185 3186 3186 3187 3186 3187 3188 3189 3190 3192 3193 3193 3194 3196 3198 3200 3203 3205 3207 3209 3210 3212 3213 3214
3145 3147 3148 3148 3147 3147 3147 3147 3147 3148 3150 3151 3152 3153 3154 3155 3156 3157 3158 3159 3160 3161 3162 3163 3165 3166 3167 3169 3170 3171 3172 3173 3175 3176 3177 3178 3179 3180 3181 3182 3183 3184 3184 3184 3185 3186 3186 3187 3188 3188 3189 3189 3191 3192 3194 3197 3200 3203 3205 3207 3209 3210 3211
3144 3144 3145 3146 3146 3146 3146 3147 3148 3148 3149 3150 3151 3152 3153 3154 3155 3155 3157 3158 3159 3160 3161 3162 3163 3164 3166 3166 3167 3169 3170 3171 3173 3174 3175 3175 3176 3177 3178 3180 3180 3181 3182 3182 3182 3183 3184 3184 3185 3185 3185 3185 3187 3189 3190 3192 3196 3200 3202 3203 3204 3206 3208
3143 3143 3143 3144 3145 3145 3146 3146 3147 3148 3149 3150 3150 3151 3152 3153 3154 3154 3155 3156 3158 3159 3160 3161 3162 3163 3164 3164 3166 3167 3167 3168 3170 3171 3172 3173 3174 3174 3176 3177 3178 3179 3179 3180 3180 3181 3181 3181 3182 3182 3182 3183 3185 3186 3187 3190 3194 3196 3198 3199 3200 3202 3204
3142 3142 3143 3144 3144 3145 3146 3146 3146 3146 3147 3148 3149 3149 3151 3151 3152 3153 3153 3154 3155 3157 3158 3159 3160 3161 3162 3162 3164 3165 3165 3165 3166 3168 3169 3171 3172 3172 3173 3175 3176 3176 3177 3178 3178 3179 3179 3179 3180 3180 3180 3181 3182 3184 3186 3188 3191 3193 3194 3196 3197 3198 3200
3142 3142 3143 3144 3144 3145 3146 3146 3145 3145 3146 3147 3147 3148 3149 3150 3151 3151 3152 3152 3154 3155 3155 3156 3158 3159 3160 3160 3162 3162 3162 3163 3164 3165 3166 3168 3169 3170 3171 3172 3173 3174 3175 3176 3177 3178 3178 3178 3178 3178 3179 3180 3181 3182 3184 3186 3187 3189 3191 3192 3193 3195 3196
3142 3142 3143 3144 3144 3144 3145 3145 3146 3146 3147 3147 3147 3148 3148 3148 3149 3150 3150 3151 3152 3153 3154 3154 3155 3157 3158 3158 3159 3160 3161 3162 3163 3163 3164 3165 3166 3167 3168 3170 3171 3172 3173 3174 3175 3176 3176 3177 3177 3177 3178 3179 3179 3181 3183 3184 3185 3187 3189 3190 3191 3192 3192
3143 3143 3143 3143 3143 3144 3144 3144 3145 3146 3146 3146 3147 3148 3148 3148 3148 3148 3149 3149 3150 3151 3152 3153 3154 3155 3156 3156 3157 3158 3159 3160 3161 3162 3163 3163 3163 3164 3166 3167 3168 3169 3171 3172 3173 3174 3174 3175 3176 3176 3177 3178 3179 3180 3182 3183 3184 3186 3186 3187 3188 3189 3189
3144 3143 3143 3143 3143 3144 3144 3144 3144 3144 3144 3145 3146 3147 3148 3149 3149 3149 3149 3149 3149 3150 3150 3151 3152 3154 3155 3155 3156 3157 3158 3158 3159 3160 3161 3162 3162 3162 3164 3165 3166 3167 3169 3170 3171 3172 3172 3173 3174 3174 3175 3176 3177 3179 3180 3182 3183 3184 3184 3185 3186 3186 3187
3142 3143 3143 3143 3143 3144 3144 3144 3144 3144 3144 3145 3145 3146 3147 3147 3148 3148 3148 3148 3149 3149 3149 3149 3150 3152 3153 3154 3154 3154 3155 3155 3156 3157 3159 3159 3159 3160 3161 3163 3164 3165 3166 3168 3169 3169 3170 3171 3172 3173 3174 3175 3176 3177 3179 3180 3181 3182 3182 3183 3183 3184 3185
3141 3141 3142 3143 3143 3143 3144 3144 3145 3145 3145 3146 3146 3146 3147 3146 3147 3147 3147 3148 3149 3149 3149 3149 3149 3150 3151 3152 3153 3153 3153 3153 3154 3155 3157 3157 3158 3159 3160 3161 3163 3164 3165 3166 3167 3168 3169 3170 3171 3171 3172 3174 3175 3176 3177 3178 3179 3180 3180 3181 3182 3183 3183
3140 3141 3141 3142 3143 3143 3143 3144 3145 3145 3146 3146 3146 3146 3146 3146 3146 3147 3147 3147 3148 3149 3149 3149 3149 3150 3150 3151 3152 3152 3152 3153 3153 3154 3155 3156 3158 3159 3159 3160 3162 3163 3164 3165 3166 3167 3168 3169 3169 3170 3171 3173 3173 3174 3176 3177 3177 3178 3179 3180 3181 3181 3182
3140 3140 3141 3141 3142 3143 3143 3143 3144 3144 3145 3146 3146 3146 3146 3146 3146 3147 3147 3148 3148 3148 3149 3149 3149 3150 3150 3150 3150 3150 3151 3151 3151 3152 3153 3155 3156 3157 3158 3159 3160 3162 3163 3164 3165 3166 3166 3167 3168 3169 3170 3171 3172 3172 3173 3174 3175 3176 3177 3178 3178 3179 3179
3139 3139 3140 3140 3141 3141 3141 3142 3142 3143 3143 3144 3144 3145 3145 3145 3145 3146 3146 3147 3148 3148 3148 3148 3149 3150 3150 3149 3149 3149 3150 3150 3150 3150 3151 3153 3154 3155 3156 3157 3159 3160 3161 3162 3163 3164 3164 3165 3166 3166 3167 3169 3169 3170 3170 3171 3172 3173 3174 3174 3175 3175 3176